Weather History for Willmar, MN

Change the Weather History Date:

Saturday, February 9, 2013

  Actual Average (KLJF) Record (KLJF)
Temperature  
Mean Temperature 32 °F -  
Max Temperature 37 °F 24 °F 54 °F (1991)
Min Temperature 28 °F 3 °F -23 °F (1972)
Degree Days  
Heating Degree Days 32    
Moisture  
Dew Point 24 °F    
Average Humidity 72    
Maximum Humidity 75    
Minimum Humidity 64    
Precipitation  
Precipitation 0.00 in - - ()
Sea Level Pressure  
Sea Level Pressure 29.97 in    
Wind  
Wind Speed 16 mph (SE)    
Max Wind Speed 21 mph    
Max Gust Speed 28 mph    
Visibility 4 miles    
Events Snow    
Averages and records for this station are not official NWS values.
T = Trace of Precipitation, MM = Missing Value Source: NWS Daily Summary

Daily Weather History Graph

Daily Weather History Graph

Search for Another Location

Airport:

Trip Planner

Search our weather history database for the weather conditions in past years. The results will help you decide how hot, cold, wet, or windy it might be!

Date:

Astronomy

Feb. 09, 2013 Rise Set
Actual Time 7:29 AM CST 5:40 PM CST
Civil Twilight 6:59 AM CST 6:10 PM CST
Nautical Twilight 6:24 AM CST 6:45 PM CST
Astronomical Twilight 5:50 AM CST 7:19 PM CST
Moon 6:41 AM CST (2/9) 5:25 PM CST (2/9)
Length of Visible Light 11h 11m
Length of Day
10h 10m
Waning Crescent, 0% of the Moon is Illuminated
Feb 9
Waning Crescent
Feb 10
New
Feb 17
First Quarter
Feb 25
Full
Mar 4
Last Quarter

Hourly Weather History & Observations

Time (CST) Temp. Windchill Dew Point Humidity Pressure Visibility Wind Dir Wind Speed Gust Speed Precip Events Conditions
12:15 AM 28.4 °F 16.2 °F 21.2 °F 74% 30.11 in 5.0 mi SSE 17.3 mph - N/A   Haze
12:35 AM 28.4 °F 15.8 °F 21.2 °F 74% 30.10 in 5.0 mi SSE 18.4 mph 27.6 mph N/A   Haze
12:55 AM 28.4 °F 15.1 °F 21.2 °F 74% 30.10 in 4.0 mi SSE 20.7 mph 27.6 mph N/A   Haze
1:15 AM 28.4 °F 15.8 °F 21.2 °F 74% 30.08 in 4.0 mi SSE 18.4 mph 26.5 mph N/A   Haze
1:35 AM 28.4 °F 15.8 °F 21.2 °F 74% 30.08 in 4.0 mi SE 18.4 mph 25.3 mph N/A   Haze
1:55 AM 28.4 °F 15.8 °F 21.2 °F 74% 30.08 in 4.0 mi SSE 18.4 mph - N/A   Haze
2:15 AM 28.4 °F 15.4 °F 21.2 °F 74% 30.07 in 4.0 mi SSE 19.6 mph 26.5 mph N/A   Haze
2:35 AM 28.4 °F 16.2 °F 21.2 °F 74% 30.07 in 4.0 mi SSE 17.3 mph - N/A   Haze
2:55 AM 28.4 °F 16.6 °F 21.2 °F 74% 30.07 in 4.0 mi SSE 16.1 mph 23.0 mph N/A   Haze
3:15 AM 28.4 °F 15.8 °F 21.2 °F 74% 30.06 in 3.0 mi SSE 18.4 mph 24.2 mph N/A   Haze
3:35 AM 28.4 °F 16.6 °F 21.2 °F 74% 30.05 in 3.0 mi SE 16.1 mph - N/A   Haze
3:55 AM 28.4 °F 15.4 °F 21.2 °F 74% 30.04 in 4.0 mi SE 19.6 mph 26.5 mph N/A   Haze
4:15 AM 28.4 °F 15.1 °F 21.2 °F 74% 30.03 in 4.0 mi SE 20.7 mph - N/A   Haze
4:35 AM 30.2 °F 18.1 °F 21.2 °F 69% 30.03 in 4.0 mi SSE 18.4 mph - N/A   Haze
4:56 AM 28.4 °F 15.4 °F 21.2 °F 74% 30.02 in 4.0 mi SSE 19.6 mph 24.2 mph N/A   Haze
5:15 AM 28.4 °F 15.8 °F 21.2 °F 74% 30.02 in 4.0 mi SE 18.4 mph - N/A   Haze
5:35 AM 30.2 °F 18.5 °F 21.2 °F 69% 30.02 in 4.0 mi SE 17.3 mph - N/A   Haze
5:56 AM 28.4 °F 15.8 °F 21.2 °F 74% 30.02 in 4.0 mi SSE 18.4 mph 24.2 mph N/A   Haze
6:15 AM 28.4 °F 16.6 °F 21.2 °F 74% 30.02 in 4.0 mi SSE 16.1 mph 24.2 mph N/A   Haze
6:35 AM 30.2 °F 19.3 °F 21.2 °F 69% 30.02 in 4.0 mi SSE 15.0 mph 21.9 mph N/A   Haze
6:56 AM 30.2 °F 19.3 °F 21.2 °F 69% 30.02 in 5.0 mi SSE 15.0 mph 20.7 mph N/A   Haze
7:15 AM 30.2 °F 19.8 °F 21.2 °F 69% 30.02 in 5.0 mi SSE 13.8 mph 20.7 mph N/A   Haze
7:35 AM 30.2 °F 19.8 °F 21.2 °F 69% 30.03 in 5.0 mi SSE 13.8 mph 17.3 mph N/A   Haze
7:56 AM 30.2 °F 19.3 °F 21.2 °F 69% 30.03 in 4.0 mi SSE 15.0 mph - N/A   Haze
8:15 AM 30.2 °F 19.3 °F 21.2 °F 69% 30.02 in 4.0 mi SSE 15.0 mph 21.9 mph N/A   Haze
8:35 AM 30.2 °F 18.9 °F 21.2 °F 69% 30.02 in 5.0 mi SSE 16.1 mph - N/A   Haze
8:56 AM 30.2 °F 19.3 °F 21.2 °F 69% 30.02 in 5.0 mi SSE 15.0 mph - N/A   Haze
9:15 AM 30.2 °F 19.3 °F 21.2 °F 69% 30.01 in 5.0 mi SSE 15.0 mph - N/A   Haze
9:35 AM 30.2 °F 19.3 °F 23.0 °F 75% 30.01 in 7.0 mi SSE 15.0 mph 20.7 mph N/A   Overcast
9:55 AM 32.0 °F 23.0 °F 21.2 °F 64% 30.01 in 7.0 mi SSE 11.5 mph - N/A   Overcast
10:15 AM 32.0 °F 22.5 °F 21.2 °F 64% 30.02 in 7.0 mi SSE 12.7 mph 16.1 mph N/A   Overcast
10:35 AM 32.0 °F 23.0 °F 23.0 °F 69% 30.02 in 7.0 mi SSE 11.5 mph - N/A   Overcast
10:55 AM 32.0 °F 23.6 °F 23.0 °F 69% 30.02 in 7.0 mi SSE 10.4 mph - N/A   Overcast
11:15 AM 32.0 °F 23.6 °F 23.0 °F 69% 30.01 in 5.0 mi SSE 10.4 mph 16.1 mph N/A   Haze
11:36 AM 33.8 °F 24.8 °F 24.8 °F 70% 30.01 in 4.0 mi SSE 12.7 mph - N/A   Haze
11:55 AM 33.8 °F 24.8 °F 24.8 °F 70% 30.00 in 2.5 mi SSE 12.7 mph - N/A   Haze
12:15 PM 33.8 °F 25.3 °F 26.6 °F 75% 29.99 in 1.5 mi SE 11.5 mph - N/A   Haze
12:36 PM 33.8 °F 24.3 °F 26.6 °F 75% 29.97 in 1.2 mi SSE 13.8 mph - N/A   Haze
12:55 PM 33.8 °F 24.8 °F 26.6 °F 75% 29.96 in 1.2 mi SSE 12.7 mph - N/A   Haze
1:15 PM 33.8 °F 24.3 °F 26.6 °F 75% 29.95 in 1.2 mi SSE 13.8 mph - N/A   Haze
1:36 PM 33.8 °F 24.8 °F 26.6 °F 75% 29.94 in 1.2 mi SSE 12.7 mph - N/A   Haze
1:55 PM 33.8 °F 24.3 °F 26.6 °F 75% 29.94 in 1.5 mi SSE 13.8 mph - N/A   Haze
2:15 PM 33.8 °F 23.2 °F 26.6 °F 75% 29.93 in 1.8 mi SSE 17.3 mph - N/A   Haze
2:35 PM 35.6 °F 26.2 °F 26.6 °F 70% 29.92 in 2.0 mi SSE 15.0 mph 20.7 mph N/A   Haze
2:55 PM 35.6 °F 25.9 °F 26.6 °F 70% 29.91 in 1.8 mi SSE 16.1 mph - N/A   Haze
3:16 PM 35.6 °F 26.6 °F 28.4 °F 75% 29.91 in 1.5 mi SSE 13.8 mph - N/A   Haze
3:35 PM 35.6 °F 26.6 °F 28.4 °F 75% 29.90 in 1.8 mi SE 13.8 mph - N/A   Haze
3:55 PM 35.6 °F 26.6 °F 28.4 °F 75% 29.91 in 1.8 mi SE 13.8 mph - N/A   Haze
4:16 PM 35.6 °F 26.6 °F 28.4 °F 75% 29.90 in 2.0 mi SE 13.8 mph - N/A   Haze
4:35 PM 35.6 °F 26.6 °F 28.4 °F 75% 29.90 in 2.5 mi SE 13.8 mph - N/A   Haze
4:55 PM 35.6 °F 27.5 °F 26.6 °F 70% 29.90 in 3.0 mi SE 11.5 mph - N/A   Haze
5:16 PM 35.6 °F 27.5 °F 26.6 °F 70% 29.89 in 3.0 mi SE 11.5 mph - N/A   Haze
5:35 PM 35.6 °F 27.5 °F 26.6 °F 70% 29.89 in 4.0 mi SE 11.5 mph - N/A   Haze
5:55 PM 35.6 °F 27.5 °F 26.6 °F 70% 29.88 in 5.0 mi SE 11.5 mph - N/A   Haze
6:16 PM 35.6 °F 27.1 °F 26.6 °F 70% 29.88 in 5.0 mi ESE 12.7 mph - N/A   Haze
6:35 PM 35.6 °F 28.6 °F 26.6 °F 70% 29.88 in 5.0 mi ESE 9.2 mph - N/A   Haze
6:55 PM 35.6 °F 28.0 °F 26.6 °F 70% 29.88 in 5.0 mi ESE 10.4 mph - N/A   Haze
7:35 PM 35.6 °F 26.6 °F 28.4 °F 75% 29.88 in 5.0 mi ESE 13.8 mph - N/A   Haze
7:55 PM 37.4 °F 28.5 °F 28.4 °F 70% 29.86 in 5.0 mi ESE 15.0 mph - N/A   Haze
8:16 PM 37.4 °F 28.5 °F 28.4 °F 70% 29.88 in 5.0 mi SE 15.0 mph - N/A   Haze
8:35 PM 37.4 °F 28.5 °F 28.4 °F 70% 29.89 in 4.0 mi SE 15.0 mph - N/A Snow Light Snow
8:55 PM 35.6 °F 26.6 °F 28.4 °F 75% 29.88 in 5.0 mi SE 13.8 mph - N/A   Haze
9:16 PM 35.6 °F 25.5 °F 28.4 °F 75% 29.87 in 4.0 mi SE 17.3 mph 23.0 mph N/A   Haze
9:35 PM 35.6 °F 26.2 °F 28.4 °F 75% 29.87 in 4.0 mi SE 15.0 mph 21.9 mph N/A   Haze
9:55 PM 35.6 °F 26.2 °F 28.4 °F 75% 29.87 in 4.0 mi SE 15.0 mph - N/A   Haze
10:16 PM 35.6 °F 26.2 °F 28.4 °F 75% 29.87 in 4.0 mi SE 15.0 mph - N/A Snow Light Snow
10:35 PM 35.6 °F 25.9 °F 28.4 °F 75% 29.86 in 4.0 mi SE 16.1 mph - N/A   Haze
10:55 PM 35.6 °F 25.5 °F 28.4 °F 75% 29.85 in 4.0 mi SE 17.3 mph - N/A   Haze
11:15 PM 35.6 °F 25.5 °F 28.4 °F 75% 29.85 in 4.0 mi SE 17.3 mph 23.0 mph N/A   Haze
11:35 PM 35.6 °F 25.2 °F 26.6 °F 70% 29.84 in 4.0 mi SE 18.4 mph 23.0 mph N/A   Haze
11:56 PM 35.6 °F 25.9 °F 26.6 °F 70% 29.84 in 4.0 mi ESE 16.1 mph - N/A   Haze